Accueil
METAR-TAF:

METAR-TAF

Aéroports :

Romorantin, France

Pruniers

latitude: 47-19N, longitude: 001-41E, altitude: 85 m

Observation

Le bulletin a été fait il y a 15 minutes, à 16:30 UTC
Vent 4 kt de ouest, variant entre sud/sud-ouest et nord-ouest
Température 22°C
Humidité 41%
Pression 1023 hPa
Visibilité 10 km ou plus
pas de nuages en-dessous de 1500 mètres et pas de cumulonimbus.

METAR: LFYR 191630Z AUTO 26004KT 210V320 CAVOK 22/08 Q1023

Heure: 18:45 (16:45 UTC)


TAF: absent

Observations et prévisions météorologiques de plus de 4000 aéroports (messages METAR et TAF).

Les stations disponibles sont représentées par des disques jaunes et rouges sur la carte.

Passer la souris dessus pour voir le nom de la station.

Cliquer dessus pour voir les observations et prévisions météorologiques.

Pour changer de carte: cliquez sur les boutons verts avec une croix noire pour zoomer, sur le bouton vert avec un tiret pour effectuer un zoom arrière, ou sur les flèches vertes pour les cartes adjacentes.


METAR-TAF: